Volver al catálogo

STARLINK-32509

ActivoComunicacionesVLEO
NORAD 62042·PAYLOAD·🇺🇸 United States

Lanzado Nov 21, 2024 desde Cape Canaveral Space Force Station

Loading…

Próximos Pases (próximas 24 horas)

TLE

ActualizadoSource: CelesTrak SupGP

Época: Sep 14, 2026, 21:38 UTC

1 62042C 24216L   26257.90187500  .00030381  00000+0  11006-2 0  2572
2 62042  43.0001 267.7868 0001465 262.0224  67.9875 15.27556696    17

Sigue STARLINK-32509 en tiempo real con AllMySat

Download on the App Store